CW2732 Elche ES current weather conditions

sailwx.info

Wind from 136

Air temperature 18.3° C
Dewpoint 12.8° C

Last reported at 2017-Nov-24 18:04 UTC.
Time now 2017-Nov-24 18:45 UTC

Location: N 38°15' W 000°42'.
View on Google Maps.

See reports from other nearby stations

  
Tides and Currents Weather Stations Pressure Air Temp Water Temp Dewpoint Dewpoint Depression Visibility Wind Speed Wind Dir Waves Ship Positions
date/time (UTC)wind fromknots sea level pressurealtimeterstation pressurevisibilityair tempwater tempwave heightnotes
2017-Nov-24 18:04 136 18.3
2017-Nov-24 17:54 134 18.9
2017-Nov-24 17:44 136 18.9
2017-Nov-24 17:35 138 18.9
2017-Nov-24 17:24 137 18.9
2017-Nov-24 17:14 137 18.9
2017-Nov-24 17:04 137 19.4
2017-Nov-24 16:54 136 19.4
2017-Nov-24 16:44 136 19.4
2017-Nov-24 16:34 138 20.0
2017-Nov-24 16:24 137 20.0
2017-Nov-24 16:14 137 20.6
2017-Nov-24 16:04 137 21.1
2017-Nov-24 15:54 137 21.1
2017-Nov-24 15:44 137 21.7
2017-Nov-24 15:34 138 21.7
2017-Nov-24 15:24 168 22.2
2017-Nov-24 15:14 103 0 gusting 5 22.8
2017-Nov-24 15:04 145 22.8
2017-Nov-24 14:54 143 23.3
2017-Nov-24 14:44 144 23.3
2017-Nov-24 14:34 164 23.3
2017-Nov-24 14:24 163 23.9
2017-Nov-24 14:14 161 23.9
2017-Nov-24 14:04 157 23.9
2017-Nov-24 13:54 159 24.4
2017-Nov-24 13:46 165 24.4
2017-Nov-24 13:36 165 0 gusting 5 25.0
2017-Nov-24 13:26 164 25.0
2017-Nov-24 13:14 167 24.4
2017-Nov-24 13:04 211 24.4
2017-Nov-24 12:54 172 23.9
2017-Nov-24 12:44 176 23.3
2017-Nov-24 12:34 148 22.8
2017-Nov-24 12:24 150 22.2
2017-Nov-24 12:14 146 22.2
2017-Nov-24 12:04 144 21.7
2017-Nov-24 11:54 145 21.7
2017-Nov-24 11:44 141 21.1
2017-Nov-24 11:34 150 21.7
2017-Nov-24 11:24 190 21.1
2017-Nov-24 11:14 190 21.1
2017-Nov-24 11:04 190 21.1
2017-Nov-24 10:54 192 21.1
2017-Nov-24 10:44 187 20.6
2017-Nov-24 10:34 236 20.0
2017-Nov-24 10:24 284 19.4
2017-Nov-24 10:14 285 18.9
2017-Nov-24 10:04 294 18.9
2017-Nov-24 09:54 294 18.3
2017-Nov-24 09:44 294 18.3
2017-Nov-24 09:34 296 18.3
2017-Nov-24 09:24 298 18.3
2017-Nov-24 09:14 298 17.8
2017-Nov-24 09:04 298 17.2
2017-Nov-24 08:54 299 16.7
2017-Nov-24 08:44 299 16.7
2017-Nov-24 08:34 298 16.7
2017-Nov-24 08:24 298 16.1
2017-Nov-24 08:14 299 15.0
2017-Nov-24 08:04 298 13.9
2017-Nov-24 07:54 299 13.3
2017-Nov-24 07:44 298 12.8
2017-Nov-24 07:34 298 11.7
2017-Nov-24 07:25 296 11.7
2017-Nov-24 07:14 299 11.7
2017-Nov-24 07:04 298 11.7
2017-Nov-24 06:54 300 11.7
2017-Nov-24 06:44 299 11.7
2017-Nov-24 06:34 298 12.2
2017-Nov-24 06:24 298 12.8
2017-Nov-24 06:14 298 13.3
2017-Nov-24 06:04 298 13.3
2017-Nov-24 05:54 298 13.3
2017-Nov-24 05:44 299 13.3
2017-Nov-24 05:34 296 12.8
2017-Nov-24 05:24 298 12.8
2017-Nov-24 05:14 299 12.8
2017-Nov-24 05:04 298 12.8
2017-Nov-24 04:54 298 13.3
2017-Nov-24 04:44 299 13.3
2017-Nov-24 04:34 298 12.8
2017-Nov-24 04:24 298 12.8
2017-Nov-24 04:14 300 12.8
2017-Nov-24 04:04 299 12.8
2017-Nov-24 03:54 298 13.3
2017-Nov-24 03:44 298 13.3
2017-Nov-24 03:34 300 13.9
2017-Nov-24 03:24 300 13.3
2017-Nov-24 03:14 300 13.3
2017-Nov-24 03:04 301 13.3
2017-Nov-24 02:54 300 13.3
2017-Nov-24 02:44 300 13.3
2017-Nov-24 02:34 300 13.3
2017-Nov-24 02:24 299 13.9
2017-Nov-24 02:14 301 13.9
2017-Nov-24 02:04 299 13.9
2017-Nov-24 01:54 299 14.4
2017-Nov-24 01:44 300 14.4
2017-Nov-24 01:34 300 14.4
2017-Nov-24 01:24 300 15.0
2017-Nov-24 01:14 300 15.0
2017-Nov-24 01:04 300 15.0
2017-Nov-24 00:54 299 15.0
2017-Nov-24 00:44 300 14.4
2017-Nov-24 00:34 299 14.4
2017-Nov-24 00:24 300 14.4
2017-Nov-24 00:14 302 14.4
2017-Nov-24 00:04 302 14.4
2017-Nov-23 23:54 301 14.4
2017-Nov-23 23:44 301 14.4
2017-Nov-23 23:34 302 14.4
2017-Nov-23 23:24 302 15.0
2017-Nov-23 23:14 301 15.0
2017-Nov-23 23:04 302 15.0
2017-Nov-23 22:54 300 15.0
2017-Nov-23 22:44 302 15.0
2017-Nov-23 22:34 302 15.6
2017-Nov-23 22:24 302 15.6
2017-Nov-23 22:14 302 15.6
2017-Nov-23 22:04 301 16.1
2017-Nov-23 21:54 301 16.1
2017-Nov-23 21:44 300 16.1
2017-Nov-23 21:34 302 16.1
2017-Nov-23 21:24 301 16.1
2017-Nov-23 21:14 302 16.1
2017-Nov-23 21:05 300 16.1
2017-Nov-23 20:54 300 16.1
2017-Nov-23 20:44 300 16.1
2017-Nov-23 20:34 300 16.1
2017-Nov-23 20:24 300 16.1
2017-Nov-23 20:14 300 16.1
2017-Nov-23 20:04 300 16.1
2017-Nov-23 19:54 244 15.6
2017-Nov-23 19:45 168 15.6
2017-Nov-23 19:34 168 16.1
2017-Nov-23 19:24 168 16.1
2017-Nov-23 19:14 168 16.7
2017-Nov-23 19:04 168 16.7
2017-Nov-23 18:54 168 17.2
2017-Nov-23 18:44 168 17.2
2017-Nov-23 18:34 169 17.2
2017-Nov-23 18:24 167 17.8
2017-Nov-23 18:14 168 17.8
2017-Nov-23 18:04 167 18.3
2017-Nov-23 17:54 169 18.3
2017-Nov-23 17:44 168 18.9
2017-Nov-23 17:34 168 18.9
2017-Nov-23 17:24 167 19.4
2017-Nov-23 17:14 169 20.0
2017-Nov-23 17:04 167 20.0
2017-Nov-23 16:54 168 20.6
2017-Nov-23 16:44 168 21.1
2017-Nov-23 16:34 169 21.1
2017-Nov-23 16:24 168 21.7
2017-Nov-23 16:14 167 21.7
2017-Nov-23 16:04 168 22.2
2017-Nov-23 15:54 167 22.2
2017-Nov-23 15:44 167 22.2
2017-Nov-23 15:34 167 22.8
2017-Nov-23 15:24 164 22.8
2017-Nov-23 15:14 162 22.8
2017-Nov-23 15:04 162 22.8
2017-Nov-23 14:54 161 22.8
2017-Nov-23 14:44 160 23.3
2017-Nov-23 14:34 152 23.3
2017-Nov-23 14:24 173 23.3
2017-Nov-23 14:14 173 23.9
2017-Nov-23 14:04 176 23.9
2017-Nov-23 13:54 176 23.9
2017-Nov-23 13:44 176 23.3
2017-Nov-23 13:34 219 23.3
2017-Nov-23 13:24 182 23.3
2017-Nov-23 13:14 153 23.9
2017-Nov-23 13:04 179 23.3
2017-Nov-23 12:54 184 23.3
2017-Nov-23 12:44 210 22.8
2017-Nov-23 12:34 220 22.8
2017-Nov-23 12:24 223 22.2
2017-Nov-23 12:14 173 21.7
2017-Nov-23 12:04 175 21.1
2017-Nov-23 11:54 217 20.6
2017-Nov-23 11:44 210 20.6
2017-Nov-23 11:34 197 20.6
2017-Nov-23 11:24 237 20.0
2017-Nov-23 11:14 217 19.4
2017-Nov-23 11:04 235 18.9
2017-Nov-23 10:54 213 18.9
2017-Nov-23 10:44 194 18.9
2017-Nov-23 10:34 225 18.9
2017-Nov-23 10:24 242 17.8
2017-Nov-23 10:14 241 17.2
2017-Nov-23 10:04 247 16.7
2017-Nov-23 09:54 247 16.7
2017-Nov-23 09:44 252 16.1
2017-Nov-23 09:34 267 16.1
2017-Nov-23 09:24 269 15.6
2017-Nov-23 09:14 271 15.0
2017-Nov-23 09:04 272 14.4
2017-Nov-23 08:54 281 14.4
2017-Nov-23 08:44 283 14.4
2017-Nov-23 08:34 287 14.4
2017-Nov-23 08:24 288 14.4
2017-Nov-23 08:14 288 13.9
2017-Nov-23 08:04 287 13.9
2017-Nov-23 07:54 289 13.9
2017-Nov-23 07:44 287 13.3
2017-Nov-23 07:34 289 12.8
2017-Nov-23 07:24 288 12.2
2017-Nov-23 07:14 294 11.7
2017-Nov-23 07:04 277 11.7
2017-Nov-23 06:54 260 0 gusting 4 11.1
2017-Nov-23 06:44 298 11.1
2017-Nov-23 06:34 279 10.6
2017-Nov-23 06:24 277 10.6
2017-Nov-23 06:14 277 10.6
2017-Nov-23 06:04 277 10.6
2017-Nov-23 05:54 276 10.6
2017-Nov-23 05:44 279 10.6
2017-Nov-23 05:34 277 10.6
2017-Nov-23 05:24 277 11.1
2017-Nov-23 05:14 278 11.7
2017-Nov-23 05:04 281 12.2
2017-Nov-23 04:54 293 12.2
2017-Nov-23 04:44 318 12.2
2017-Nov-23 04:34 294 12.2
2017-Nov-23 04:24 254 1 gusting 6 12.2
2017-Nov-23 04:14 284 0 gusting 7 11.7
2017-Nov-23 04:04 260 1 gusting 6 11.1
2017-Nov-23 03:54 309 0 gusting 5 10.6
2017-Nov-23 03:44 300 10.6
2017-Nov-23 03:34 300 10.6
2017-Nov-23 03:24 301 10.6
2017-Nov-23 03:14 301 10.6
2017-Nov-23 03:04 300 10.6
2017-Nov-23 02:54 301 11.1
2017-Nov-23 02:44 300 11.7
2017-Nov-23 02:34 300 12.2
2017-Nov-23 02:24 300 12.2
2017-Nov-23 02:14 286 0 gusting 5 12.2
2017-Nov-23 02:04 290 12.2
2017-Nov-23 01:54 276 11.7
2017-Nov-23 01:44 265 1 gusting 6 11.7
2017-Nov-23 01:34 279 11.7
2017-Nov-23 01:24 275 11.7
2017-Nov-23 01:14 275 12.2
2017-Nov-23 01:04 272 12.2
2017-Nov-23 00:54 271 12.2
2017-Nov-23 00:44 296 12.2
2017-Nov-23 00:34 296 0 gusting 3 12.2
2017-Nov-23 00:23 303 12.2
2017-Nov-23 00:13 302 12.2
2017-Nov-23 00:03 303 12.2
2017-Nov-22 23:53 317 12.2
2017-Nov-22 23:44 290 12.2
2017-Nov-22 23:33 290 12.2
2017-Nov-22 23:23 289 12.2
2017-Nov-22 23:13 290 12.2
2017-Nov-22 23:03 288 12.2
2017-Nov-22 22:53 288 12.2
2017-Nov-22 22:43 288 12.8
2017-Nov-22 22:33 287 12.8
2017-Nov-22 22:23 289 12.8
2017-Nov-22 22:13 288 12.8
2017-Nov-22 22:03 287 12.8
2017-Nov-22 21:53 288 12.8
2017-Nov-22 21:43 248 13.3
2017-Nov-22 21:33 245 13.3
2017-Nov-22 21:23 288 0 gusting 6 13.3
2017-Nov-22 21:13 298 13.3
2017-Nov-22 21:03 340 0 gusting 6 13.3
2017-Nov-22 20:53 294 13.3
2017-Nov-22 20:43 292 13.3
2017-Nov-22 20:33 290 13.3
2017-Nov-22 20:23 292 13.9
2017-Nov-22 20:13 289 13.9
2017-Nov-22 20:03 290 13.9
2017-Nov-22 19:53 290 13.9
2017-Nov-22 19:44 143 13.9
2017-Nov-22 19:33 143 13.9
2017-Nov-22 19:23 144 13.9
2017-Nov-22 19:13 142 14.4
2017-Nov-22 19:03 143 14.4
2017-Nov-22 18:53 144 15.0
2017-Nov-22 18:43 143 15.0
2017-Nov-22 18:33 144 15.0
2017-Nov-22 18:23 144 15.0
2017-Nov-22 18:13 144 15.0
2017-Nov-22 18:03 144 15.0